Regional Weather Roundup
Issued by NWS

Home | Current Version | Previous Version | Text Only | Print | Product List | Glossary On
Versions: 1 2 3 4 5 6 7 8 9 10 11 12 13 14 15 16 17 18 19 20 21 22 23 24 25 26 27 28 29 30 31 32 33 34 35 36 37 38 39 40 41 42 43 44 45 46 47 48 49 50
000
ASUS43 KIND 240109
RWRIN

WEATHER ROUNDUP FOR INDIANA
NATIONAL WEATHER SERVICE INDIANAPOLIS IN
900 PM EDT WED JUL 23 2014

NOTE: "FAIR" INDICATES FEW OR NO CLOUDS BELOW 12,000 FEET WITH NO
SIGNIFICANT WEATHER AND/OR OBSTRUCTIONS TO VISIBILITY.

* - STATION DOES NOT REPORT WEATHER SUCH AS PRECIPITATION OR FOG.

+ - STATION NOT QUALITY CONTROLLED BY THE NATIONAL WEATHER SERVICE.
    USE DATA WITH CAUTION...ESPECIALLY DEWPOINT AND RELATIVE
    HUMIDITY OBSERVATIONS.

INZ001>003-010>013-019-020-240200-
NORTHWEST INDIANA

CITY           SKY/WX    TMP DP  RH WIND       PRES   REMARKS
GARY /AIRPORT/ PTCLDY    64  52  63 N25       30.14S
KNOX *+        CLEAR     63  51  66 N7        30.10S
LA PORTE +     CLEAR     61  52  71 N12       30.12S
MICHIGAN CITY+ CLEAR     61  50  67 N9        30.12S
MONTICELLO +   CLEAR     64  53  68 N9        30.08S
RENSSELAER +   CLEAR     64  52  63 N7        30.11S
VALPARAISO     CLEAR     62  50  64 VRB6G16   30.12R

$$

LMZ046-743>745-240200-
SOUTHERN LAKE MICHIGAN

STATION/POSITION TIME  TEMP WIND        PRES
                       AIR  DIR/SP/G
                 (UTC) (F)  (DEG/KT/KT) (MB)
MICHIGAN CITY    0100   63  360/ 24/ 27   N/A

$$

INZ004-005-014>016-021>024-240200-
NORTH CENTRAL INDIANA

CITY           SKY/WX    TMP DP  RH WIND       PRES   REMARKS
GOSHEN         PTCLDY    68  58  70 NW10      30.08R
LOGANSPORT +   CLEAR     64  55  72 N10       30.08S
PERU/GRISSOM   CLEAR     68  62  82 N12       30.07R
ROCHESTER +    CLEAR     68  55  64 NW8       30.09R
SOUTH BEND     CLEAR     64  52  64 N13       30.10R
WARSAW +       PTCLDY    66  59  77 NW8       30.07R

$$

INZ006>009-017-018-025>027-240200-
NORTHEAST INDIANA

CITY           SKY/WX    TMP DP  RH WIND       PRES   REMARKS
ANGOLA *+      MOCLDY    70  61  73 NE3       30.07R
AUBURN +       PTCLDY    68  54  60 N3        30.07R
FORT WAYNE     MOCLDY    71  57  61 N8        30.05R
HUNTINGTON +   MOCLDY    69  59  69 N5        30.05R

$$

INZ028-029-035-036-043>045-051>053-240200-
WEST CENTRAL INDIANA

CITY           SKY/WX    TMP DP  RH WIND       PRES   REMARKS
GREENCASTLE +  CLEAR     68  55  64 N10       30.06R
LAFAYETTE      CLEAR     65  50  58 N12G23    30.08S
TERRE HAUTE    CLEAR     69  56  62 N10       30.06R

$$

INZ030>032-037>040-046>048-054>057-064-065-240200-
CENTRAL INDIANA

CITY           SKY/WX    TMP DP  RH WIND       PRES   REMARKS
CP ATTERBURY + CLOUDY    70  66  88 CALM      30.02R
COLUMBUS       CLOUDY    70  68  94 N8        30.02R
INDIANAPOLIS   MOCLDY    71  61  70 N14       30.03R
-EAGLE CREEK   CLOUDY    70  60  70 N12G18    30.04R
KOKOMO *+      CLEAR     68  61  77 N12       30.06R
MARION +       MOCLDY    70  58  66 N5        30.05R
MT COMFORT *+  CLEAR     68  68 100 N8        30.04R
SHELBYVILLE    CLOUDY    73  66  78 N6        30.02R
ZIONSVILLE +   PTCLDY    69  58  68 N12G17    30.06R

$$

INZ033-034-041-042-049-050-058-059-240200-
EAST CENTRAL INDIANA

CITY           SKY/WX    TMP DP  RH WIND       PRES   REMARKS
MUNCIE         MOCLDY    69  61  75 N7        30.03S

$$

INZ060-061-067>069-081>083-085>088-240200-
SOUTHWEST INDIANA

CITY           SKY/WX    TMP DP  RH WIND       PRES   REMARKS
EVANSVILLE     CLOUDY    75  68  78 N14       30.01R
HUNTINGBURG *+ CLOUDY    73  68  83 N8        30.02R
WASHINGTON +   CLOUDY    72  70  93 N5        30.02R

$$

INZ062-063-066-070>080-084-089>092-240200-
SOUTH CENTRAL AND SOUTHEAST INDIANA

CITY           SKY/WX    TMP DP  RH WIND       PRES   REMARKS
BLOOMINGTON    CLOUDY    73  64  73 N13       30.02R

$$



USA.gov is the U.S. government's official web portal to all federal, state and local government web resources and services.